Regional Weather Roundup
Issued by NWS

Home | Current Version | Previous Version | Graphics & Text | Print | Product List | Glossary Off
Versions: 1 2 3 4 5 6 7 8 9 10 11 12 13 14 15 16 17 18 19 20 21 22 23 24 25 26 27 28 29 30 31 32 33 34 35 36 37 38 39 40 41 42 43 44 45 46 47 48 49 50

000
ASUS43 KTOP 031108
RWRKS

WEATHER ROUNDUP FOR KANSAS
NATIONAL WEATHER SERVICE GOODLAND KS
600 AM CDT SUN MAY 03 2015

NOTE:  "FAIR" INDICATES FEW OR NO CLOUDS BELOW 12,000 FEET WITH NO
SIGNIFICANT WEATHER AND/OR OBSTRUCTIONS TO VISIBILITY.

KSZ001>006-013>018-027>032-041>047-031200-
NORTHWEST KANSAS

CITY           SKY/WX    TMP DP  RH WIND       PRES   REMARKS
GOODLAND       PTCLDY    52  44  74 W10       29.84R
HAYS           CLOUDY    61  46  59 SW9       29.79S
HILL CITY      MOCLDY    62  47  57 SW5       29.81R
RUSSELL        CLOUDY    63  52  67 SW14      29.77R
$$

KSZ061>065-074>080-084>089-031200-
SOUTHWEST KANSAS

CITY           SKY/WX    TMP DP  RH WIND       PRES   REMARKS
DODGE CITY     PTCLDY    58  47  66 S8        29.82R
ELKHART          N/A     55  44  66 SW9         N/A
GARDEN CITY    CLOUDY    54  43  66 NW7       29.82F
GREAT BEND     MOCLDY    63  52  67 SW9       29.79R
LIBERAL        CLOUDY    63  45  51 S12       29.84S
PRATT          MOCLDY    61  52  72 S13       29.82S
$$

KSZ066>073-081>083-090>101-031200-
SOUTHEAST KANSAS

CITY           SKY/WX    TMP DP  RH WIND       PRES   REMARKS
CHANUTE        MOCLDY    62  53  72 S12       29.90S
COFFEYVILLE    MOCLDY    63  53  70 S12       29.92S
HUTCHINSON     MOCLDY    63  55  75 S12       29.81F
MEDICINE LODGE   N/A     62  55  77 SE8       29.82F
NEWTON         CLOUDY    64  52  63 S17       29.85S
PARSONS        MOCLDY    61  53  75 S7        29.93R
WICHITA INTL   CLOUDY    63  55  75 S14       29.83F
WICHITA JABRA  CLOUDY    64  54  69 S20G25    29.84S
WICHITA MCCONL CLOUDY    64  55  74 S16G24    29.84F
WINFIELD       CLOUDY    64  55  72 S14G23    29.88S
$$

KSZ007>012-019>026-033>040-048>060-102>105-031200-
NORTHEAST KANSAS

CITY           SKY/WX    TMP DP  RH WIND       PRES   REMARKS
CONCORDIA      PTCLDY    62  54  74 S13       29.74F
EMPORIA        CLOUDY    61  54  77 S12       29.85F
LAWRENCE       LGT RAIN  63  55  75 S13       29.87F
MANHATTAN      CLOUDY    67  56  67 S13       29.78F
MARYSVILLE     PTCLDY    63  55  77 S9        29.78S
OLATHE IND     CLOUDY    59  53  80 S8        29.91S
OLATHE EXE     CLOUDY    62  53  72 S12       29.90S
SALINA         CLOUDY    66  55  67 S14       29.77R
TOPEKA BILLARD CLOUDY    63  57  81 SE12      29.85F
TOPEKA FORBES  CLOUDY    64  56  75 SE7       29.85F
$$


USA.gov is the U.S. government's official web portal to all federal, state and local government web resources and services.